GFSNW_prec_radar_078.txt.gz
Reflectivity
-20 3 -12 -20 -20 20 4 -2 11 -19 12 19 16 15 2 -20 -20 -20 -20 -20 -20 -20 -20 -20 -20 -7 -20 -20 -20 -20 11 -20 -9 -18 7 7 16 -1 -9 19 22 13 8 3
19 -19 6 -12 11 26 14 19 -20 -18 24 11 14 0 -3 -20 -20 -20 -20 -20 -20 -20 -20 -20 -20 -20 -9 -20 -20 -20 -20 -20 -13 -5 13 12 4 8 19 3 25 32 23 8
-17 -20 -20 20 -7 9 18 23 17 -18 22 15 18 19 -0 3 -20 -20 -20 -20 -20 -20 -20 -20 -20 -20 -12 -20 -20 -20 -16 -20 -14 16 32 24 7 14 10 19 9 12 25 17
17 14 -12 -18 -12 -20 27 15 5 22 9 14 -1 -8 13 13 -20 -20 -20 -20 -20 -20 -20 -20 -20 -20 -20 -18 -20 -20 -17 -4 -18 -20 -8 2 26 12 18 34 26 17 16 2
12 16 10 -18 3 8 18 15 0 -20 4 3 16 6 3 3 -6 3 1 -20 -20 -20 -20 -20 -20 -2 0 -18 8 -20 -20 -9 -20 -20 -20 -20 4 19 20 1 25 25 -2 22
31 36 15 -20 -15 20 27 1 -17 22 -8 -14 5 20 14 -14 -20 -20 24 3 -5 -20 -20 -20 -19 -7 -5 -18 7 -20 -3 -20 -20 -20 -0 -5 -20 -18 -15 6 6 -4 -14 -5
28 38 21 -5 -20 -2 4 -20 -14 18 5 1 -7 -20 -20 -4 -20 -2 -18 -18 -1 -20 15 -20 -8 -20 -20 -11 -17 -20 -20 -20 -20 -10 -14 3 -20 -4 -20 -20 -20 -18 -2 8
14 18 26 12 -1 -20 19 -17 19 21 15 9 -8 -20 -19 -3 1 -13 -20 -20 -15 21 22 22 -20 -20 -20 -17 -20 -20 -20 -20 1 9 -19 -20 -9 -20 -20 -19 1 5 -13 -15
7 10 17 32 32 9 4 -4 15 23 23 -20 -20 -17 -20 -8 -20 -19 19 -20 -20 23 21 -20 -15 9 -11 5 -20 -20 -20 -19 14 14 -19 -20 -20 -20 -20 -20 -18 -16 -20 -20
8 -0 -16 20 22 30 14 -13 -11 21 16 -20 19 17 -3 -20 -3 8 -3 12 21 18 17 -12 1 4 14 21 20 4 7 2 5 6 12 -9 -20 -20 -20 1 0 -20 -17 -1
27 8 15 11 9 18 28 0 9 -5 13 -6 -19 -19 5 17 19 2 19 -3 26 -0 5 -9 3 12 16 20 17 20 -9 8 8 2 13 2 -20 -18 20 24 -2 -12 -10 -17
6 24 12 -20 -20 17 31 15 9 15 13 -17 -14 -20 -20 -13 -8 -8 29 25 20 23 -20 -15 20 18 20 0 21 25 19 -17 -18 -20 -20 -20 -20 -16 13 -20 16 1 -15 -20
-2 14 18 14 -6 3 16 10 10 17 25 13 -19 -20 -20 -20 -20 0 19 17 14 -20 14 22 27 21 22 20 -20 -10 24 24 9 20 -15 14 34 8 11 -17 -20 -20 -20 -20
12 10 20 -11 10 7 25 7 12 5 19 0 -20 -20 -20 -20 -20 -5 13 24 -11 -8 7 37 25 -4 30 24 13 -5 19 -11 -3 15 32 27 9 19 30 -20 -20 -20 -20 -20
15 15 -6 -19 12 12 23 33 26 18 12 17 -8 -20 -20 -20 -20 -20 -20 -16 2 13 21 16 9 -19 8 -10 5 8 -1 29 32 26 33 33 33 31 10 -20 -20 -20 -20 -20
-10 12 11 13 27 15 32 37 31 24 6 33 29 18 -20 -20 -20 -20 -20 16 18 23 28 4 17 18 21 -12 21 12 13 -14 -20 -19 1 -8 -20 -20 -20 -20 -20 -20 -20 -20
1 13 14 14 13 28 29 19 13 10 19 36 15 10 -14 -20 -4 -20 -20 -10 27 20 12 33 15 -18 12 15 -13 13 27 3 -14 -20 -18 -9 -20 -20 -20 -20 -20 -20 -20 -20
-6 9 11 26 36 28 16 13 10 9 33 18 -2 18 22 10 13 19 13 0 21 28 10 16 -9 -0 -12 10 -8 -20 -16 8 -12 12 -5 -20 -20 -20 -20 -20 -20 -20 -20 -20
12 27 30 31 34 28 12 18 2 14 23 -12 10 20 19 -12 -2 14 2 -18 16 3 26 9 7 -3 17 11 -14 -20 -20 -20 -19 -8 -20 -20 -20 -20 -20 -20 -20 -20 -20 -20
31 19 30 30 21 7 28 36 37 35 22 12 13 25 14 7 -4 22 -0 17 14 14 -3 -2 -3 -20 -20 -20 -20 -20 -20 -20 -20 -20 -20 -20 -20 -19 -20 -20 -20 -20 -20 -5
20 28 18 12 24 23 31 26 29 29 10 -12 7 -5 -6 -20 2 9 -2 24 13 13 4 4 14 -2 -1 -20 -20 -20 -20 -20 -20 -20 -20 -20 -20 -7 -19 -20 -20 -6 -6 -1
-1 11 15 29 32 22 15 20 13 19 19 -3 20 21 19 6 -9 17 -16 -2 10 17 19 17 8 6 -3 -15 -20 -20 1 -20 -20 -20 -20 -16 -8 -20 -17 -5 -3 -0 1 1
22 6 25 31 24 18 20 14 20 10 3 -1 -2 -17 -18 -18 -10 -12 6 1 9 -9 15 -10 3 2 -20 -20 -20 -6 -20 -19 -17 -4 -18 -20 -17 -7 -6 -3 0 -15 -18 -4
4 -20 -20 -2 -20 -18 -5 -3 -0 -2 2 -6 8 -9 7 -6 -13 -5 13 -19 -20 -2 9 -3 4 -0 6 6 3 -19 -2 -5 -4 0 0 2 1 2 -4 -4 -10 -18 -20 -12
-20 -20 -11 -2 -3 -2 3 4 2 -1 21 13 10 -3 -20 3 9 1 -20 -13 -12 -20 -1 6 3 5 7 6 7 5 5 5 4 0 -2 0 -3 -6 -2 -6 -13 -20 -20 -20
-20 -15 9 -2 6 5 -4 6 -2 4 19 -7 12 -13 -20 -20 -13 -20 -9 -5 -10 3 7 6 -1 1 2 3 3 3 5 2 2 2 -2 -3 -7 -16 -6 -15 -20 -5 -12 -14
-15 -2 -18 11 -2 6 3 2 -3 -3 8 -19 -13 -20 -20 -20 -13 -20 -20 -4 4 -1 1 -4 0 1 0 -3 -3 4 -1 0 0 0 -1 0 1 2 -4 -20 -1 -9 -20 -20

GFSNW_prec_radar_084.txt.gz
Reflectivity
-20 1 -12 -20 19 16 -20 13 2 9 26 5 13 -18 -4 -12 -8 -20 -20 -20 -20 -20 -20 -20 -20 -19 -20 -20 1 -20 -20 -20 -20 -20 -20 -20 -20 -20 -20 21 20 -12 10 -8
-20 -18 -20 -20 19 17 -20 11 22 0 16 5 -19 -18 -7 6 -20 -14 -20 -20 -20 -20 -20 -20 -20 -20 -20 -20 -20 -20 -20 -20 -20 -20 -20 -20 -18 -10 6 12 -6 5 19 -2
13 -20 20 22 20 16 -4 -7 12 -11 -3 18 10 15 -19 1 -20 -20 -20 -20 -20 -20 -20 -20 -20 -20 -20 -20 -20 -20 -20 -20 -20 -19 -20 -4 -19 -3 26 31 23 -20 -20 -17
-1 -20 -15 -18 23 16 -20 -19 -7 -14 22 26 18 6 20 -2 -10 3 -19 -20 -20 -20 -20 -20 -20 -20 -20 -20 -20 -20 -20 -20 -20 -20 -20 -20 -20 -10 21 16 21 -2 -16 16
11 -20 -13 13 22 18 11 -20 -20 -20 -20 12 12 5 -3 6 -6 -16 -20 -20 -20 -20 -20 -20 -20 -20 -20 -20 -20 -20 -20 -20 -20 -20 -20 -20 -20 -20 -5 26 13 28 -1 32
-9 -11 12 8 26 29 -8 3 -16 -20 -20 -20 -20 7 -6 7 6 -20 -20 -20 -12 -20 3 -20 -20 -20 -20 -20 -20 -20 -17 7 -20 -20 -20 -20 -20 -17 -9 -13 7 28 -0 15
14 13 15 8 25 35 7 -20 -20 -11 -19 -20 -20 -20 -9 -20 -20 -20 -20 -18 -20 -20 -20 -20 -20 -20 -20 -20 -20 -20 -20 -5 -12 1 -20 -20 -20 -20 -14 22 21 -0 5 -0
11 3 13 -14 22 30 12 -19 -9 10 -20 -20 -20 -20 -20 -12 -19 -5 -20 -20 -6 -20 -20 -20 -20 -20 -20 -20 -20 -20 -20 -20 -20 -20 -19 -20 -20 -20 -13 6 11 -20 -20 -6
-18 12 13 7 19 21 19 -1 -20 -2 -18 -20 -20 -20 -20 -20 -20 -20 -20 19 1 -20 -20 -20 -20 -20 -20 -20 -20 -20 -20 -20 -20 -20 2 -20 -20 9 3 5 4 -20 -20 -20
-6 10 14 14 14 17 11 10 -16 -20 11 -20 -20 -20 -20 -20 -20 -20 -20 -20 -20 -20 -20 -4 -20 -20 -20 -20 -20 -20 -20 -20 -20 -20 -17 -20 -20 -20 -18 12 -18 -20 -20 -16
-4 -18 12 14 16 17 17 17 8 -20 -20 -20 -20 -20 -20 -20 -20 -6 -15 -20 -20 -20 -6 -20 -20 -20 -20 -6 -20 -20 -10 -3 -5 -4 9 5 -20 -20 -4 -8 -20 -20 -8 7
-20 -20 -20 17 14 26 21 25 13 3 -20 -20 -20 -20 -20 -20 -18 -20 -9 -17 5 23 6 -13 -20 -20 -20 -20 -20 22 -6 7 15 -20 -20 -11 -19 -20 -20 17 19 23 15 0
-20 -20 -16 7 2 23 23 22 4 33 30 3 -20 -17 -15 -20 -20 -20 -20 -20 18 33 37 25 -20 -20 -14 -7 -20 -20 33 38 11 15 19 -1 21 -15 -14 20 16 12 -11 14
-5 -6 -8 21 10 23 32 25 8 24 18 -20 -20 -20 -20 -20 -20 -20 -20 -20 -16 21 31 -12 -12 -20 -20 -20 -20 12 40 23 30 37 33 15 2 -2 21 20 -4 20 11 21
-10 -20 -18 13 18 29 23 -8 14 5 15 -5 -19 -20 -20 -20 -20 -20 -20 -20 -20 6 18 -20 -20 -20 -11 7 26 1 10 24 28 27 40 17 30 18 36 31 19 -16 8 17
-4 -20 14 17 18 31 1 26 17 4 24 -20 -20 -20 -20 -20 -20 -20 -20 -20 -20 5 -20 -20 -20 -20 6 14 23 21 20 27 2 18 37 38 41 31 26 17 14 12 8 -5
-3 0 16 19 20 28 -18 -20 -20 14 13 -12 -11 -20 -20 21 -20 -20 -20 -14 -9 -4 -5 5 -20 -20 -13 21 11 7 15 -20 -20 -9 5 -1 6 9 0 11 4 3 -18 -18
9 2 10 20 16 29 -4 -8 -7 -17 -1 -3 -15 -20 2 -15 -9 -0 -20 -7 15 0 -20 6 7 -4 14 -17 -8 -20 -19 -20 -20 -20 -20 -20 -20 -20 -20 -16 -20 -20 -20 -20
17 20 18 30 38 26 3 -4 8 11 -16 -19 -5 -20 -10 -1 14 20 5 4 -17 -20 7 9 -20 -17 -19 -13 -20 -20 -20 -20 -20 -20 -20 -20 -20 -20 -20 -20 -20 -20 -20 -20
27 27 30 24 30 15 8 35 36 34 27 -4 -3 -20 10 28 -20 22 -19 -20 -20 -19 -20 -13 -8 -5 -20 -20 -20 -20 -20 -20 -20 -20 -20 -8 -20 -20 -20 -20 -20 -20 -20 -20
36 32 28 14 17 17 28 15 12 22 -18 -20 -20 -20 -20 14 1 -14 -18 -3 -8 -20 -20 -20 -14 -20 -6 -20 -20 -20 -20 -20 -20 -20 -20 -20 -20 -20 -20 -4 -20 -20 -20 -20
27 24 24 23 29 31 9 15 -2 -20 -20 -20 -12 -20 -8 32 31 21 -15 -6 12 -20 23 9 -20 -0 -20 -20 -20 -20 -20 -20 -20 -20 -20 -20 -20 -20 -20 -20 -14 -20 -20 -20
11 24 25 32 23 -2 -20 13 -1 -20 -19 -9 -6 -20 -20 6 -6 -20 -20 -20 -18 -12 1 -15 -20 -6 -20 -20 -20 -20 -20 -20 -20 -20 -20 -20 -20 -20 -20 -20 -20 -20 -20 -20
19 13 1 2 -20 -20 -20 -20 -20 -20 -18 9 -20 -15 -2 -4 -18 -5 3 -20 -20 -20 -20 -12 0 -20 -20 -20 -20 -20 -20 -20 -20 -20 -20 -20 -20 -20 -20 -20 -20 -20 -20 -20
-12 -20 -17 -20 -20 -19 -18 -18 -20 -20 9 13 -20 -20 -2 -9 -20 -20 -20 -20 -20 -20 -20 -20 -20 -20 -20 -20 -20 -20 -20 -20 -20 -20 -20 -20 -20 -20 -20 -20 -20 -20 -20 -20
-20 -20 -20 -18 -20 -17 -19 -18 -1 7 -7 -16 -20 -20 -20 -20 -20 -20 -20 -20 -20 -20 -20 -20 -20 -20 -20 -20 -20 -20 -20 -20 -20 -20 -20 -20 -20 -20 -20 -20 -20 -20 -20 -20
-20 -20 -12 -20 -20 -18 -16 -19 -19 9 7 -20 -20 -20 -20 -20 -20 -20 -20 -20 -20 -20 -20 -20 -20 -20 -20 -20 -20 -20 -20 -20 -20 -20 -20 -20 -20 -20 -20 -20 -20 -20 -20 -20

GFSNW_prec_radar_087.txt.gz
Reflectivity
-3 -20 -20 -20 -20 -20 -20 -17 -8 -20 22 33 -19 -20 5 7 -20 -20 13 31 12 -1 -17 -20 -20 23 9 -4 -20 -19 -20 -20 -20 -20 -20 -20 -20 -20 -20 -2 -1 19 28 -14
-9 -20 -20 -20 16 -20 -20 -9 -7 -13 20 25 -12 -15 -20 -3 -17 10 12 4 27 7 21 -1 -20 -20 -20 -20 -20 -20 -20 -20 -20 -20 -16 -19 -20 4 -15 9 26 12 4 -14
-20 -20 -20 -20 1 -1 -20 -20 -19 -20 31 20 14 -20 4 15 -4 2 1 14 12 24 4 7 -20 -20 -20 -20 -20 -20 -20 -20 -20 -20 -20 -20 -20 -5 -19 2 24 25 14 -20
4 -20 -20 -4 -17 3 -20 -8 -20 -20 -8 -6 7 12 26 9 -9 -8 17 7 -11 1 6 -20 -20 -20 -20 -20 -20 -20 -20 -20 -20 -20 -20 -20 -20 -20 -20 -20 -15 33 -8 18
11 -20 2 -20 4 19 9 -20 -20 -20 -20 -17 10 18 19 18 -6 -20 -20 -20 -20 -20 -20 -20 -20 -20 -20 -20 -20 -20 -20 -20 -20 -20 -20 -20 -20 -20 -20 -20 -20 8 -5 26
-20 -20 -12 11 11 20 28 -0 -14 -12 -20 -20 3 12 2 12 3 9 -4 -20 -20 -20 -20 -20 -20 -20 -20 -20 -20 -20 -20 -20 -20 -20 -20 -20 -20 -20 -18 -20 -20 -20 5 32
-1 9 13 12 -2 15 13 22 12 -19 -19 -20 -20 -20 -19 -17 -20 -19 -20 -20 -20 -20 -20 -20 -20 -20 -20 -20 -20 -20 -20 -20 -20 -20 -20 -20 -20 -20 1 -20 -20 -16 -20 17
-8 14 12 -16 13 24 22 30 1 -19 -19 -20 -20 -20 -20 -20 -20 -20 -20 -20 5 -20 -20 -20 -20 -20 -20 -20 -20 -20 -20 -20 -20 -20 -20 -20 -20 -20 -20 -20 -20 -20 -20 -12
4 3 -20 9 -10 19 16 1 -11 -9 1 -20 -20 -20 -20 -20 -20 -20 -20 -20 -20 -20 -20 -20 -20 -20 -20 -20 -20 -20 -20 -20 -20 -20 -0 -20 -20 -20 -20 -20 -20 -20 -20 -19
-3 6 -17 -11 -1 18 16 8 -9 22 -19 -20 -20 -20 -20 -20 -20 -20 -19 -20 -20 -20 -20 -20 -20 -20 -20 -20 -20 -20 -20 -20 -20 -20 0 -20 -20 -20 -20 -20 -20 -19 -12 17
-14 8 -20 -20 1 -1 14 19 -8 13 -20 -20 -20 -20 -20 -20 -20 -20 -20 -20 -20 -20 -20 -20 -20 -20 -20 -20 -20 -20 -20 -20 -20 -20 -6 -15 -20 -20 -20 -20 -20 -1 18 13
13 9 -20 -20 -20 -1 21 22 13 8 25 -20 -20 -20 -20 -20 -20 -20 -20 -20 -20 13 15 5 -18 -20 -20 -20 -20 -20 -19 -20 12 2 -20 -17 -19 -20 -20 -20 -20 10 10 19
8 5 -20 -20 -20 -20 21 26 22 24 22 -16 -20 -19 -20 -20 -20 -20 -20 -20 -20 -20 14 27 22 -20 -19 -20 -20 -20 -19 2 15 38 14 5 0 -20 -20 -20 -20 -19 -15 -1
14 1 -8 -20 -12 -8 24 26 15 2 16 -13 -20 -20 -20 -20 -20 -20 -20 -20 -20 3 3 19 7 -19 -20 -20 -20 4 17 15 32 32 27 30 26 13 13 -9 -15 -12 -13 3
11 6 1 -13 24 24 26 15 20 9 12 -7 -20 -20 -20 -20 -20 -20 -20 -20 -9 -19 7 12 -20 -20 -0 -11 7 -16 22 2 10 15 27 35 19 28 21 14 22 7 9 6
-20 -20 -20 -17 27 22 20 33 31 26 30 -19 -20 -20 -20 -20 -20 -20 -20 -20 -20 -10 28 0 -20 -19 21 -20 17 20 29 20 27 30 33 27 29 30 30 14 4 9 6 4
14 -20 -20 15 20 1 20 -20 -20 19 6 13 -20 -20 -20 -20 -20 -20 -20 -20 -20 3 12 -18 -20 -20 4 -14 -19 -5 -7 2 -20 7 16 -3 -5 7 -20 -12 -3 -6 4 -20
-20 13 17 18 16 25 21 -19 3 2 1 -18 -20 -20 -20 -18 -20 -7 -20 -20 -20 -3 23 -0 -2 5 6 -1 -12 -20 -20 -20 -20 -20 -20 -20 -20 -20 -20 -20 -20 -20 -18 -20
-20 21 25 33 32 14 21 -4 7 3 -20 -19 -4 -19 -20 -18 -20 1 17 -20 -20 -20 -20 -20 -18 -19 -20 -20 -20 -20 -20 -20 -20 -20 -20 -20 -20 -20 -20 -20 -20 -20 -20 -20
14 32 36 21 19 8 29 28 26 29 18 15 -13 -20 -17 13 -1 15 15 -4 -20 -6 -19 -20 -15 -20 -20 -20 -20 -20 -20 -20 -20 -20 -20 -20 -20 -20 -20 -20 -20 -20 -20 -20
38 35 31 17 23 20 27 -11 -8 -20 -10 -18 -20 -20 -20 2 15 -20 -20 -16 -2 -7 -20 8 -4 -20 -20 -20 -20 -20 -20 -20 -13 -20 -20 -20 -20 -20 -20 -20 -20 -20 -20 -20
34 27 20 31 19 27 5 4 -9 -17 -20 -20 -20 8 -8 -6 29 -15 -20 -2 2 -20 23 4 -20 -14 -20 -20 -20 -20 -20 -20 -20 -20 -20 -20 -20 -20 -20 -20 -20 -20 -20 -20
28 16 26 8 18 18 -20 -19 -20 -20 -8 -11 4 -13 -20 -12 34 5 -20 -20 -18 -11 -5 -10 -20 -20 -20 -20 -20 -20 -20 -20 -20 -20 -20 -13 -20 -20 -20 -20 -20 -20 -20 -20
17 23 18 16 -5 -20 -20 -20 -20 -20 -18 -18 -20 -19 -20 -20 -9 9 -18 -20 -20 -20 -20 -20 -20 -20 -20 -20 -20 -20 -20 -20 -20 -20 -20 -20 -20 -20 -20 -20 -20 -20 -20 -20
8 -14 -17 -20 -20 -20 -20 -20 -20 0 -16 -14 -20 -20 -20 -20 -20 -20 -20 -20 -20 -20 -20 -20 -20 -20 -20 -20 -20 -20 -20 -20 -20 -20 -20 -20 -20 -20 -20 -20 -20 -20 -20 -20
-5 -20 -12 -20 -20 -17 -20 -20 -20 -6 3 -19 -16 -18 -20 -20 -20 -20 -20 -20 -20 -20 -20 -20 -20 -20 -20 -20 -20 -20 -20 -20 -20 -20 -20 -20 -20 -20 -20 -20 -20 -20 -20 -20
-19 -20 -20 -20 -20 -20 -20 -17 -19 -4 -14 -20 -20 -20 -20 -20 -20 -20 -20 -20 -20 -20 -20 -20 -20 -20 -20 -20 -20 -20 -20 -20 -20 -20 -20 -20 -20 -20 -20 -20 -20 -20 -20 -20

GFSNW_prec_radar_093.txt.gz
Reflectivity
7 -20 -20 -20 -4 -20 -20 -20 -20 -20 -20 -20 -10 -8 -20 -20 -20 -20 1 14 18 23 24 17 26 -2 14 -20 -20 -20 -20 -20 -20 -20 -20 -20 -20 -20 -20 -20 -20 -20 8 -15
8 -20 -20 -20 -10 -20 -20 -20 -20 -20 -20 -20 -18 -20 -20 -20 -20 -20 -20 -3 20 33 24 16 23 7 8 6 -2 -20 4 -12 16 9 -18 -20 -20 -20 -20 -20 -20 -20 3 -20
6 -20 -17 -20 -12 -20 -20 -20 -20 -20 -20 -6 -13 -10 -20 -7 -20 -20 -3 7 37 35 28 18 26 27 -13 -7 -10 -15 -20 -20 -20 -20 -20 -20 -20 -20 -20 -20 -20 -20 -20 -20
8 -17 -14 -20 -10 12 -20 -20 -20 -20 -20 -20 -20 -20 -17 15 9 26 10 27 12 23 22 19 8 28 28 -0 16 21 19 -13 -20 -20 -20 -20 -20 -20 -20 -20 -20 -17 -20 -20
9 -5 7 -20 -12 9 -20 -20 -20 -20 -20 -20 -20 -17 -16 -3 -20 8 12 -6 20 -2 13 27 12 9 14 15 13 12 9 10 3 -20 -20 -20 -20 -20 -20 -20 -20 -20 -20 -20
-20 11 -20 -20 -12 16 -20 -12 -15 -19 -20 -20 -20 -20 -20 -20 -18 -17 -19 -20 -20 -20 -20 1 4 -17 -17 -9 -20 -20 -20 -20 -20 -20 -20 -20 -20 -20 -20 -20 -20 -20 -20 -20
-20 17 -20 -20 -12 -1 -17 -11 4 -18 -20 -20 -20 -20 -20 -20 -18 -19 -20 -20 -20 -20 -20 -20 -20 -20 -20 -20 -20 -20 -20 -20 -20 -20 -20 -20 -20 -20 -20 -20 -20 -20 -20 -20
24 -13 -20 -19 15 18 12 2 12 0 -20 -20 -20 -20 -20 -20 -20 -20 -20 -20 -20 -20 -20 -20 -20 -20 -20 -20 -20 -20 -20 -20 -20 -20 -20 -20 -20 -20 -20 -20 -20 -20 -20 -20
12 -20 -20 -20 -20 17 14 -6 -2 27 -20 -20 -20 -20 -20 -20 -20 -20 -20 -20 -20 -20 -20 -20 -20 -20 -20 -20 -20 -20 -20 -20 -20 -20 -20 -20 -20 -20 -20 -20 -20 -20 -20 -20
6 -20 -20 -20 -20 0 19 25 3 34 -19 -20 -20 -20 -20 -20 -20 -20 -20 -20 -20 -20 -20 -20 -16 -20 -20 -20 -20 -20 -20 -20 -20 -18 -20 -20 -20 -20 -20 -20 -20 2 -20 -20
13 -20 -20 -20 -20 -20 23 27 -20 11 -19 -20 -20 -20 -20 -20 -20 -20 -20 -20 -20 -20 -19 -15 -11 -20 -20 -20 -20 -20 -20 -20 -20 -19 -13 -20 -20 -20 -17 -1 -4 10 -4 -20
-18 -20 -20 -20 -20 -20 16 31 -18 8 26 -20 -20 -20 -20 -20 -20 -20 -20 -20 -20 -20 -20 -20 -20 -18 -20 -20 -20 -20 -0 9 7 -17 14 25 2 -1 12 -1 -2 16 20 21
-20 -20 -20 -20 10 -20 10 16 -3 25 26 -12 -20 -20 -20 -20 -20 -20 -20 -20 -20 -20 -20 -20 -20 -3 -19 -20 -20 -20 -16 -12 1 4 20 10 20 2 3 3 19 20 9 7
-20 -20 -11 11 -20 13 -1 11 6 15 14 -13 -20 -20 -20 -20 -20 -20 -20 -20 -20 -20 -20 -10 -17 -13 -16 -16 -9 6 -20 -20 -20 21 18 19 -20 5 15 -2 0 -8 -10 -20
-20 -20 -10 10 -11 1 19 14 -2 -1 13 -10 -20 -20 -20 -20 -20 -20 -20 -20 -20 -20 -20 6 -4 -20 1 10 2 -20 -10 -7 -12 -2 0 3 -3 -3 7 12 4 2 -7 -19
-20 -20 -16 1 -16 19 27 21 -1 -2 20 36 -14 -18 -20 -20 -20 -20 -20 -20 -20 -20 1 23 25 -19 18 -20 -20 -20 5 2 18 12 25 3 -3 -11 -6 10 15 2 -20 -20
-19 13 24 14 8 18 10 6 -20 15 15 29 5 -20 -20 -20 -20 -20 -20 -20 -20 -15 1 9 -15 -20 10 -13 -16 -20 -17 -20 -14 8 -3 -5 -18 -19 -20 -20 -20 -20 -20 -20
15 22 20 9 18 24 25 28 7 4 25 11 -19 -20 -20 -19 -20 -20 -20 -20 -20 -16 -15 -16 5 8 -19 -13 -20 -20 -20 -20 -20 -20 -20 -20 -20 -20 -20 -20 -20 -20 -20 -20
28 29 35 33 27 27 26 21 13 -3 -16 -20 -20 -20 -20 -6 -14 2 -5 -20 -19 -20 -13 -17 -20 -19 -13 -20 -20 -20 -20 -20 -20 -20 -20 -20 -20 -20 -20 -20 -20 -20 -20 -20
32 37 29 16 31 18 16 30 23 24 5 10 4 -20 -20 0 24 -16 3 -20 -9 -20 -20 -14 8 -20 -20 -20 -20 -20 -20 -20 -20 -20 -20 -20 -20 -20 -20 -20 -20 -20 -20 -20
32 32 30 6 23 13 24 -12 -7 -19 -9 -4 -20 -20 -20 -20 -2 -19 -20 -20 -20 -20 -20 -20 -19 -20 -20 -18 -20 -20 -20 -20 -20 -20 -20 -20 -20 -20 -20 -20 -20 -20 -20 -20
17 21 28 23 34 13 -12 -20 -6 -15 -20 -20 -20 -20 -20 -20 3 -17 -11 -20 -4 -19 -0 -9 -20 -20 -20 -20 -20 -20 -20 -20 -20 -20 -20 -20 -20 -20 -20 -20 -20 -20 -20 -20
32 28 28 13 14 5 -20 -20 -14 -20 -20 -20 -20 11 -20 -20 14 14 -19 -16 -20 6 -19 -20 -20 -20 -20 -20 -20 -20 -20 -20 -20 -20 -20 -20 -20 -20 -20 -20 -20 -20 -20 -20
21 17 2 -20 -20 -20 -20 -20 -20 -20 -20 -20 -11 -18 -20 -19 -9 14 -20 -20 -20 -20 -20 -20 -20 -20 -20 -20 -20 -20 -20 -20 -20 -20 -20 -20 -20 -20 -20 -20 -20 -20 -20 -20
20 15 6 -18 -20 -20 -20 -20 -20 -20 -20 -20 -20 -20 -20 -20 -10 -20 -20 -20 -20 -20 -20 -20 -20 -20 -20 -20 -20 -20 -20 -20 -20 -20 -20 -20 -20 -20 -20 -20 -20 -20 -20 -20
15 8 -19 -20 -20 -17 -20 -16 -20 -20 -20 -20 -20 -20 -20 -20 -20 -20 -20 -20 -20 -20 -20 -20 -20 -20 -20 -20 -20 -20 -20 -20 -20 -20 -20 -20 -20 -20 -20 -20 -20 -20 -20 -20
-3 -20 -20 -20 -20 -20 -20 -20 -20 -20 -20 -20 -20 -20 -20 -20 -20 -20 -20 -20 -20 -20 -20 -20 -20 -20 -20 -20 -20 -20 -20 -20 -20 -20 -20 -20 -20 -20 -20 -20 -20 -20 -20 -20